#timestamp,LO_Frequency,Hit 
1501394415.5,286047005.6,N
1501394435.4,286047005.3,N
1501394455.2,286047005.8,N
1501394475.0,286047005.4,N
1501394475.9,286047005.4,N
1501394495.8,286047005.7,N
1501394515.6,286047003.0,N
1501394535.4,286047005.9,N
1501394555.3,286047001.7,N
1501394575.1,286047002.2,N
1501394576.0,286047002.2,N
1501394595.8,286047003.9,N
1501394615.7,286047001.7,N
1501394635.5,286047004.3,N
1501394655.3,286047005.5,N
1501394675.2,286047006.0,N
1501394695.9,286047005.6,N
1501394715.7,286047001.4,N
1501394735.6,286047003.7,N
1501394755.4,286047004.3,N
1501394775.2,286047003.4,N
1501394795.0,286047003.7,N
1501394795.9,286047003.7,N
1501394815.8,286047005.1,N
1501394835.6,286047006.8,N
1501394855.4,286047006.7,N
1501394875.3,286047008.2,N
1501394895.1,286047010.9,N
1501394915.8,286047011.4,N
1501394935.7,286047011.2,N
1501394955.5,286047011.7,N
1501394975.3,286047012.0,N
1501394995.2,286047012.4,N
1501395015.0,286047012.5,N
1501395015.9,286047012.5,N
1501395035.7,286047012.9,N
1501395055.6,286047014.4,N
1501395075.4,286047015.4,N
1501395095.2,286047013.0,N
1501395115.1,286047018.0,N
1501395135.5,286047015.8,N
1501395155.4,286047012.8,N
1501395175.2,286047012.8,N
1501395195.0,286047015.1,N
1501395195.9,286047015.1,N
1501395215.8,286047014.5,N
1501395235.6,286047017.1,N
1501395255.4,286047017.1,N
1501395275.2,286047016.8,N
1501395295.1,286047017.6,N
1501395296.0,286047017.6,N
1501395315.8,286047021.8,N
1501395335.6,286047025.1,N
1501395355.5,286047025.1,N
1501395375.3,286047026.1,N
1501395395.1,286047028.3,N
1501395415.9,286047026.4,N
1501395435.7,286047026.4,N
1501395455.5,286047023.7,N
1501395475.4,286047022.6,N
1501395495.2,286047022.7,N
1501395515.0,286047025.2,N
1501395515.9,286047025.2,N
1501395535.8,286047024.8,N
1501395555.6,286047022.7,N
1501395575.4,286047023.2,N
1501395595.3,286047023.6,N
1501395615.1,286047018.9,N
1501395616.0,286047018.9,N
1501395635.8,286047019.2,N
1501395655.7,286047018.3,N
1501395675.5,286047019.2,N
1501395695.3,286047021.4,N
1501395715.1,286047025.2,N
1501395735.9,286047026.5,N
1501395755.7,286047023.7,N
1501395775.5,286047024.3,N
1501395795.4,286047020.6,N
1501395815.2,286047022.0,N
1501395835.0,286047023.2,N
1501395835.9,286047023.2,N
1501395855.8,286047020.9,N
1501395875.6,286047018.8,N
1501395895.4,286047016.0,N
1501395915.3,286047018.8,N
1501395935.1,286047016.2,N
1501395936.0,286047016.2,N
1501395955.8,286047015.9,N
1501395975.7,286047020.4,N
1501395995.5,286047017.3,N
1501396015.3,286047020.3,N
1501396035.2,286047019.7,N
1501396055.9,286047019.8,N
1501396075.7,286047018.9,N
1501396095.6,286047019.0,N
1501396115.4,286047021.5,N
1501396135.2,286047020.6,N
1501396155.0,286047021.7,N
1501396155.9,286047021.7,N
1501396175.8,286047021.8,N
1501396195.6,286047022.0,N
1501396215.4,286047019.8,N
1501396235.3,286047019.8,N
1501396255.1,286047017.4,N
1501396275.8,286047016.6,N
1501396295.7,286047016.8,N
1501396315.5,286047013.0,N
1501396335.3,286047010.1,N
1501396355.2,286047011.0,N
1501396375.9,286047014.0,N
1501396395.7,286047012.7,N
1501396415.6,286047009.6,N
1501396435.4,286047008.4,N
1501396455.2,286047008.0,N
1501396475.1,286047008.6,N
1501396476.0,286047008.6,N
1501396495.8,286047010.8,N
1501396515.6,286047009.3,N
1501396535.5,286047009.8,N
1501396555.3,286047012.5,N
1501396575.1,286047014.6,N
1501396595.9,286047014.8,N
1501396615.7,286047014.6,N
1501396635.5,286047016.8,N
1501396655.3,286047018.2,N
1501396675.2,286047019.2,N
1501396695.0,286047021.8,N
1501396695.9,286047021.8,N
1501396715.7,286047023.6,N
1501396735.6,286047021.9,N
1501396755.4,286047021.3,N
1501396775.2,286047021.6,N
1501396795.1,286047019.3,N
1501396796.0,286047019.3,N
1501396815.8,286047019.1,N
1501396835.6,286047022.0,N
1501396855.5,286047021.8,N
1501396875.3,286047021.5,N
1501396895.1,286047020.7,N
1501396915.9,286047021.6,N
1501396935.7,286047022.0,N
1501396955.5,286047020.4,N
1501396975.4,286047019.7,N
1501396995.2,286047019.8,N
1501397015.0,286047019.1,N
1501397015.9,286047019.1,N
1501397035.8,286047020.4,N
1501397055.6,286047015.9,N
1501397075.4,286047014.5,N
1501397095.2,286047013.7,N
1501397115.1,286047010.3,N
1501397116.0,286047010.3,N
1501397135.8,286047008.1,N
1501397155.7,286047007.9,N
1501397175.5,286047009.6,N
1501397195.3,286047010.8,N
1501397215.1,286047008.5,N
1501397235.9,286047006.7,N
1501397255.7,286047007.0,N
1501397275.5,286047004.8,N
1501397295.4,286047003.1,N
1501397315.2,286047002.9,N
1501397335.0,286047005.5,N
1501397335.9,286047005.5,N
1501397355.8,286047002.9,N
1501397375.6,286047001.3,N
1501397395.4,286047001.3,N
1501397415.3,286047002.4,N
1501397435.1,286046998.4,N
1501397436.0,286046998.4,N
1501397455.8,286046997.4,N
1501397475.7,286046994.9,N
1501397495.5,286046995.8,N
1501397515.3,286046993.0,N
1501397535.1,286046990.8,N
1501397555.9,286046990.8,N
1501397575.7,286046992.9,N
1501397595.5,286046988.6,N
1501397615.4,286046987.3,N
1501397635.2,286046987.9,N
1501397655.0,286046986.4,N
1501397655.9,286046986.4,N
1501397675.8,286046987.8,N
1501397695.6,286046987.2,N
1501397715.4,286046985.5,N
1501397735.3,286046986.4,N
1501397755.2,286046986.4,N
1501397775.0,286046986.2,N
1501397775.9,286046986.2,N
1501397795.8,286046985.6,N
1501397815.6,286046988.4,N
1501397835.4,286046987.3,N
1501397855.2,286046991.0,N
1501397875.1,286046992.0,N
1501397876.0,286046992.0,N
1501397895.8,286046992.5,N
1501397915.7,286046990.5,N
1501397935.5,286046991.3,N
1501397955.3,286046989.0,N
1501397975.1,286046988.2,N
1501397995.9,286046983.7,N
